Location: Ariel
(45.9570°N, 122.5700°W)
Time: 15:46:26
(UTC-07:00)

Altair - Pass Details

Date: 24 July 2019
Orbit: 1501 x 1683 km, 47.2° (Epoch: 24 August)

Event Time Altitude Azimuth Distance (km) Brightness Sun altitude
Rises 18:18:09 0° 292° (WNW) 4,647 11.2 24.1°
Reaches altitude 10° 18:21:17 10° 287° (WNW) 3,674 11.3 23.6°
Maximum altitude 18:29:56 46° 218° (SW) 1,968 8.8 22.1°
Drops below altitude 10° 18:38:50 10° 148° (SSE) 3,773 9.3 20.5°
Sets 18:42:06 0° 143° (SE) 4,782 9.7 20.0°
